Weather History for Olean, NY

Change the Weather History Date:

Wednesday, April 17, 2013

  Actual Average (KBFD) Record (KBFD)
Temperature  
Mean Temperature 44 °F 44 °F  
Max Temperature 55 °F 56 °F 82 °F (2002)
Min Temperature 33 °F 33 °F 16 °F (1962)
Degree Days  
Heating Degree Days 21 16  
Month to date heating degree days 315  
Since 1 July heating degree days 6922  
Cooling Degree Days 0 0  
Month to date cooling degree days 0  
Year to date cooling degree days 0  
Moisture  
Dew Point 33 °F    
Average Humidity 66    
Maximum Humidity 93    
Minimum Humidity 41    
Precipitation  
Precipitation 0.00 in 0.12 in 0.73 in (1992)
Month to date precipitation 2.05  
Year to date precipitation 11.06  
Sea Level Pressure  
Sea Level Pressure 30.24 in    
Wind  
Wind Speed 5 mph (ENE)    
Max Wind Speed 12 mph    
Max Gust Speed -    
Visibility 10 miles    
Events      
T = Trace of Precipitation, MM = Missing Value Source: NWS Daily Summary

Daily Weather History Graph

Daily Weather History Graph

Search for Another Location

Airport:

Trip Planner

Search our weather history database for the weather conditions in past years. The results will help you decide how hot, cold, wet, or windy it might be!

Date:

Astronomy

Apr. 17, 2013 Rise Set
Actual Time 6:29 AM EDT 7:57 PM EDT
Civil Twilight 5:59 AM EDT 8:26 PM EDT
Nautical Twilight 5:24 AM EDT 9:02 PM EDT
Astronomical Twilight 4:47 AM EDT 9:39 PM EDT
Moon 11:39 AM EDT (4/17) 1:36 AM EDT (4/17)
Length of Visible Light 14h 26m
Length of Day
13h 28m
Waxing Crescent, 42% of the Moon is Illuminated
Apr 17
Waxing Crescent
Apr 18
First Quarter
Apr 25
Full
May 2
Last Quarter
May 9
New

Hourly Weather History & Observations

Time (EDT) Temp. Windchill Dew Point Humidity Pressure Visibility Wind Dir Wind Speed Gust Speed Precip Events Conditions
12:15 AM 42.8 °F 40.1 °F 41.0 °F 93% 30.20 in 10.0 mi NNW 4.6 mph - N/A   Overcast
12:35 AM 42.8 °F - 39.2 °F 87% 30.21 in 10.0 mi Calm Calm - N/A   Overcast
12:55 AM 42.8 °F 41.1 °F 39.2 °F 87% 30.21 in 10.0 mi North 3.5 mph - N/A   Overcast
1:15 AM 42.8 °F 40.1 °F 37.4 °F 81% 30.21 in 10.0 mi NNE 4.6 mph - N/A   Overcast
1:35 AM 42.8 °F 40.1 °F 37.4 °F 81% 30.21 in 10.0 mi NNE 4.6 mph - N/A   Overcast
1:55 AM 42.8 °F 40.1 °F 37.4 °F 81% 30.21 in 10.0 mi NNE 4.6 mph - N/A   Overcast
2:15 AM 42.8 °F 41.1 °F 37.4 °F 81% 30.21 in 10.0 mi NNE 3.5 mph - N/A   Overcast
2:35 AM 41.0 °F 38.0 °F 37.4 °F 87% 30.20 in 10.0 mi North 4.6 mph - N/A   Mostly Cloudy
2:55 AM 41.0 °F 38.0 °F 35.6 °F 81% 30.20 in 10.0 mi NNE 4.6 mph - N/A   Mostly Cloudy
3:15 AM 39.2 °F 37.0 °F 35.6 °F 87% 30.20 in 10.0 mi North 3.5 mph - N/A   Mostly Cloudy
3:35 AM 37.4 °F 33.8 °F 33.8 °F 87% 30.21 in 10.0 mi NNE 4.6 mph - N/A   Scattered Clouds
3:55 AM 37.4 °F 34.9 °F 33.8 °F 87% 30.21 in 10.0 mi NE 3.5 mph - N/A   Clear
4:15 AM 37.4 °F 33.8 °F 33.8 °F 87% 30.22 in 10.0 mi NE 4.6 mph - N/A   Scattered Clouds
4:35 AM 37.4 °F 32.8 °F 32.0 °F 81% 30.23 in 10.0 mi NNE 5.8 mph - N/A   Mostly Cloudy
4:55 AM 35.6 °F 31.7 °F 32.0 °F 87% 30.23 in 10.0 mi NNE 4.6 mph - N/A   Scattered Clouds
5:15 AM 35.6 °F 30.7 °F 32.0 °F 87% 30.24 in 10.0 mi NE 5.8 mph - N/A   Scattered Clouds
5:35 AM 35.6 °F - 32.0 °F 87% 30.25 in 10.0 mi Calm Calm - N/A   Scattered Clouds
5:55 AM 33.8 °F - 32.0 °F 93% 30.25 in 10.0 mi Calm Calm - N/A   Mostly Cloudy
6:15 AM 35.6 °F - 32.0 °F 87% 30.25 in 10.0 mi Calm Calm - N/A   Overcast
6:35 AM 35.6 °F - 32.0 °F 87% 30.25 in 10.0 mi Calm Calm - N/A   Overcast
6:55 AM 35.6 °F - 32.0 °F 87% 30.27 in 10.0 mi Calm Calm - N/A   Overcast
7:15 AM 35.6 °F - 32.0 °F 87% 30.28 in 10.0 mi Calm Calm - N/A   Overcast
7:35 AM 35.6 °F 32.8 °F 32.0 °F 87% 30.28 in 10.0 mi NE 3.5 mph - N/A   Mostly Cloudy
7:55 AM 37.4 °F 33.8 °F 32.0 °F 81% 30.28 in 10.0 mi ENE 4.6 mph - N/A   Scattered Clouds
8:15 AM 37.4 °F 32.1 °F 32.0 °F 81% 30.28 in 10.0 mi ENE 6.9 mph - N/A   Clear
8:35 AM 37.4 °F 33.8 °F 30.2 °F 75% 30.29 in 10.0 mi NNE 4.6 mph - N/A   Clear
8:55 AM 39.2 °F 35.0 °F 32.0 °F 75% 30.29 in 10.0 mi NE 5.8 mph - N/A   Clear
9:15 AM 41.0 °F 38.0 °F 32.0 °F 70% 30.29 in 10.0 mi ENE 4.6 mph - N/A   Clear
9:35 AM 42.8 °F 39.3 °F 32.0 °F 66% 30.29 in 10.0 mi ENE 5.8 mph - N/A   Clear
9:55 AM 42.8 °F - 30.2 °F 61% 30.29 in 10.0 mi Calm Calm - N/A   Clear
10:15 AM 42.8 °F 38.6 °F 30.2 °F 61% 30.28 in 10.0 mi NE 6.9 mph - N/A   Clear
10:35 AM 44.6 °F 41.4 °F 32.0 °F 61% 30.29 in 10.0 mi ENE 5.8 mph - N/A   Clear
10:55 AM 46.4 °F 42.9 °F 32.0 °F 57% 30.28 in 10.0 mi ENE 6.9 mph - N/A   Clear
11:15 AM 46.4 °F 42.4 °F 32.0 °F 57% 30.29 in 10.0 mi NE 8.1 mph - N/A   Clear
11:35 AM 46.4 °F 43.5 °F 32.0 °F 57% 30.29 in 10.0 mi ENE 5.8 mph - N/A   Clear
11:55 AM 48.2 °F - 32.0 °F 54% 30.28 in 10.0 mi Calm Calm - N/A   Clear
12:15 PM 50.0 °F - 32.0 °F 50% 30.28 in 10.0 mi North 4.6 mph - N/A   Clear
12:35 PM 50.0 °F - 32.0 °F 50% 30.28 in 10.0 mi Calm Calm - N/A   Clear
1:15 PM 51.8 °F - 32.0 °F 47% 30.26 in 10.0 mi Calm Calm - N/A   Clear
1:35 PM 53.6 °F - 33.8 °F 47% 30.26 in 10.0 mi ENE 4.6 mph - N/A   Clear
1:55 PM 53.6 °F - 33.8 °F 47% 30.26 in 10.0 mi ENE 8.1 mph - N/A   Clear
2:15 PM 53.6 °F - 32.0 °F 44% 30.26 in 10.0 mi ENE 4.6 mph - N/A   Clear
2:35 PM 53.6 °F - 32.0 °F 44% 30.26 in 10.0 mi East 4.6 mph - N/A   Clear
2:55 PM 55.4 °F - 32.0 °F 41% 30.25 in 10.0 mi NNE 6.9 mph - N/A   Clear
3:15 PM 55.4 °F - 33.8 °F 44% 30.25 in 10.0 mi East 3.5 mph - N/A   Clear
3:35 PM 55.4 °F - 33.8 °F 44% 30.25 in 10.0 mi East 6.9 mph - N/A   Clear
4:35 PM 55.4 °F - 33.8 °F 44% 30.23 in 10.0 mi NE 8.1 mph - N/A   Clear
4:55 PM 55.4 °F - 32.0 °F 41% 30.23 in 10.0 mi NNE 5.8 mph - N/A   Clear
5:15 PM 55.4 °F - 32.0 °F 41% 30.24 in 10.0 mi NE 6.9 mph - N/A   Clear
5:35 PM 53.6 °F - 32.0 °F 44% 30.24 in 10.0 mi ENE 8.1 mph - N/A   Clear
5:55 PM 55.4 °F - 32.0 °F 41% 30.24 in 10.0 mi East 6.9 mph - N/A   Clear
6:15 PM 53.6 °F - 32.0 °F 44% 30.23 in 10.0 mi East 8.1 mph - N/A   Clear
6:35 PM 51.8 °F - 33.8 °F 50% 30.23 in 10.0 mi NE 11.5 mph - N/A   Clear
6:55 PM 51.8 °F - 33.8 °F 50% 30.23 in 10.0 mi ENE 10.4 mph - N/A   Clear
7:15 PM 50.0 °F - 33.8 °F 54% 30.23 in 10.0 mi ENE 9.2 mph - N/A   Clear
7:35 PM 48.2 °F - 33.8 °F 58% 30.23 in 10.0 mi ENE 8.1 mph - N/A   Clear
7:55 PM 46.4 °F 41.5 °F 33.8 °F 62% 30.22 in 10.0 mi ENE 10.4 mph - N/A   Clear
8:15 PM 46.4 °F 42.4 °F 33.8 °F 62% 30.22 in 10.0 mi East 8.1 mph - N/A   Clear
8:35 PM 44.6 °F 40.2 °F 33.8 °F 66% 30.21 in 10.0 mi East 8.1 mph - N/A   Clear
8:55 PM 44.6 °F 40.2 °F 33.8 °F 66% 30.21 in 10.0 mi East 8.1 mph - N/A   Clear
9:15 PM 44.6 °F 40.2 °F 33.8 °F 66% 30.21 in 10.0 mi East 8.1 mph - N/A   Clear
9:35 PM 44.6 °F 39.7 °F 33.8 °F 66% 30.22 in 10.0 mi East 9.2 mph - N/A   Clear
9:55 PM 44.6 °F 39.2 °F 33.8 °F 66% 30.21 in 10.0 mi East 10.4 mph - N/A   Clear
10:15 PM 44.6 °F 38.8 °F 32.0 °F 61% 30.21 in 10.0 mi ESE 11.5 mph - N/A   Clear
10:55 PM 44.6 °F 40.2 °F 32.0 °F 61% 30.19 in 10.0 mi ESE 8.1 mph - N/A   Clear
11:15 PM 44.6 °F 40.7 °F 32.0 °F 61% 30.18 in 10.0 mi ESE 6.9 mph - N/A   Clear
11:35 PM 44.6 °F 40.2 °F 32.0 °F 61% 30.18 in 10.0 mi ESE 8.1 mph - N/A   Clear
11:55 PM 44.6 °F 40.7 °F 32.0 °F 61% 30.18 in 10.0 mi SE 6.9 mph - N/A   Clear